User: anonymous   Login
Location: Brno
(49.2000°N, 16.6330°E)
Time: 06:27:46
(UTC+01:00)
Language:

RESURS DK-1 - Orbit

View from above orbital plane
View from above orbital plane
View from above satellite
View from above satellite

Ground track
Ground track

The orbit data is extracted from the following two-line orbital elements,

1 29228U 06021A   14304.83053361  .00001812  00000-0  14942-3 0  3824
2 29228 069.9386 017.2474 0005107 335.9856 135.4673 15.00931742464075
Epoch (UTC): 31 October 2014 19:55:58
Eccentricity: 0.0005107
inclination: 69.9386°
perigee height: 560 km
apogee height: 567 km
right ascension of ascending node: 17.2474°
argument of perigee: 335.9856°
revolutions per day: 15.00931742
mean anomaly at epoch: 135.4673°
orbit number at epoch: 46407

The dashed part of the orbit path shows where the satellite is in the earth's shadow,  

DLR